K6OUA-11 Weather Reports


time (UTC)temp
C
wind
direction
speed
KPH
gust
KPH
rain 1hr
cm
rain 24hr
cm
rain mn
cm
humidity
%
barometer
mb
20260502182444 21 300 0.0 9.7 0.00 0.00 0.00 68
20260502182242 20 248 1.6 8.0 0.00 0.00 0.00 67
20260502182040 20 210 9.7 8.0 0.00 0.00 0.00 67
20260502181838 20 122 1.6 8.0 0.00 0.00 0.00 69
20260502181637 20 133 6.4 8.0 0.00 0.00 0.00 68
20260502181232 20 119 3.2 1.6 0.00 0.00 0.00 72
20260502181031 20 116 1.6 1.6 0.00 0.00 0.00 72
20260502180828 19 90 0.0 1.6 0.00 0.00 0.00 75
20260502180626 19 90 0.0 8.0 0.00 0.00 0.00 77
20260502180425 18 150 0.0 8.0 0.00 0.00 0.00 76
20260502180223 18 178 4.8 3.2 0.00 0.00 0.00 74
20260502170328 15 278 8.0 14.5 0.00 0.00 0.00 87
20260502170126 15 292 6.4 14.5 0.00 0.00 0.00 87
20260502164309 15 274 8.0 14.5 0.00 0.00 0.00 90
20260502164107 15 310 4.8 14.5 0.00 0.00 0.00 90
20260502163905 15 255 11.3 14.5 0.00 0.00 0.00 91
20260502163703 15 270 9.7 16.1 0.00 0.00 0.00 91
20260502163501 14 300 9.7 16.1 0.00 0.00 0.00 91
20260502163259 14 282 11.3 16.1 0.00 0.00 0.00 90
20260502162855 15 285 11.3 16.1 0.00 0.00 0.00 91
20260502162653 15 274 8.0 12.9 0.00 0.00 0.00 93
20260502162451 14 278 8.0 12.9 0.00 0.00 0.00 94
20260502162250 14 293 4.8 14.5 0.00 0.00 0.00 94
20260502162046 14 291 9.7 14.5 0.00 0.00 0.00 94
20260502161846 13 317 4.8 14.5 0.00 0.00 0.00 94
20260502161039 13 275 11.3 14.5 0.00 0.00 0.00 95
20260502160835 13 275 12.9 14.5 0.00 0.00 0.00 95
20260502160635 13 284 9.7 16.1 0.00 0.00 0.00 95
20260502160433 13 281 9.7 16.1 0.00 0.00 0.00 95
20260502160230 13 285 9.7 17.7 0.00 0.00 0.00 95
20260502152153 13 208 0.0 4.8 0.00 0.00 0.00 97
20260502151951 13 157 0.0 4.8 0.00 0.00 0.00 97
20260502151747 13 185 4.8 6.4 0.00 0.00 0.00 97
20260502151547 13 177 3.2 6.4 0.00 0.00 0.00 97
20260502151346 13 184 0.0 6.4 0.00 0.00 0.00 97
20260502150740 12 137 4.8 11.3 0.00 0.00 0.00 97
20260502150538 12 157 4.8 11.3 0.00 0.00 0.00 97
20260502150134 12 180 4.8 11.3 0.00 0.00 0.00 97
20260502130747 11 296 0.0 0.0 0.00 0.00 0.00 96
20260502130546 11 296 0.0 0.0 0.00 0.00 0.00 96
20260502130344 11 296 0.0 0.0 0.00 0.00 0.00 96
20260502123718 10 296 0.0 0.0 0.00 0.00 0.00 96
20260502123517 10 296 0.0 0.0 0.00 0.00 0.00 96
20260502123315 10 296 0.0 0.0 0.00 0.00 0.00 96
20260502123113 10 296 0.0 0.0 0.00 0.00 0.00 96
20260502122911 10 296 0.0 0.0 0.00 0.00 0.00 96
20260502122707 10 296 0.0 0.0 0.00 0.00 0.00 96
20260502122508 10 296 0.0 0.0 0.00 0.00 0.00 96
20260502122306 10 296 0.0 0.0 0.00 0.00 0.00 96
20260502122102 10 296 0.0 0.0 0.00 0.00 0.00 96
20260502121900 10 296 0.0 0.0 0.00 0.00 0.00 96
20260502121700 11 296 0.0 0.0 0.00 0.00 0.00 96
20260502121458 11 296 0.0 0.0 0.00 0.00 0.00 96
20260502121256 11 296 0.0 0.0 0.00 0.00 0.00 96
20260502121054 11 296 0.0 0.0 0.00 0.00 0.00 96
20260502120851 11 296 0.0 0.0 0.00 0.00 0.00 96
20260502120651 11 296 0.0 0.0 0.00 0.00 0.00 96
20260502120448 11 296 0.0 0.0 0.00 0.00 0.00 96
20260502120246 11 296 0.0 6.4 0.00 0.00 0.00 96
20260502115843 11 296 0.0 6.4 0.00 0.00 0.00 96
20260502115641 11 313 3.2 4.8 0.00 0.00 0.00 96
20260502115439 11 317 4.8 4.8 0.00 0.00 0.00 96
20260502115237 11 309 1.6 3.2 0.00 0.00 0.00 96
20260502115034 11 303 0.0 3.2 0.00 0.00 0.00 96
20260502114833 11 303 0.0 3.2 0.00 0.00 0.00 96
20260502114631 11 261 0.0 0.0 0.00 0.00 0.00 96
20260502114429 11 261 0.0 0.0 0.00 0.00 0.00 96
20260502114227 11 261 0.0 0.0 0.00 0.00 0.00 96
20260502114026 11 261 0.0 0.0 0.00 0.00 0.00 96
20260502113824 11 261 0.0 0.0 0.00 0.00 0.00 96
20260502113621 11 261 0.0 0.0 0.00 0.00 0.00 96
20260502113420 11 261 0.0 0.0 0.00 0.00 0.00 96
20260502113218 11 261 0.0 0.0 0.00 0.00 0.00 96
20260502113016 11 261 0.0 0.0 0.00 0.00 0.00 96
20260502112814 11 261 0.0 0.0 0.00 0.00 0.00 96
20260502112612 11 261 0.0 0.0 0.00 0.00 0.00 96
20260502112410 11 261 0.0 0.0 0.00 0.00 0.00 96
20260502112007 11 261 0.0 0.0 0.00 0.00 0.00 95
20260502111805 11 261 0.0 0.0 0.00 0.00 0.00 95
20260502111603 11 261 0.0 0.0 0.00 0.00 0.00 95
20260502111400 11 261 0.0 0.0 0.00 0.00 0.00 95
20260502111159 11 261 0.0 0.0 0.00 0.00 0.00 95
20260502110957 11 261 0.0 0.0 0.00 0.00 0.00 96
20260502110755 11 261 0.0 0.0 0.00 0.00 0.00 95
20260502110553 11 261 0.0 0.0 0.00 0.00 0.00 95
20260502110351 11 261 0.0 0.0 0.00 0.00 0.00 95
20260502110149 11 261 0.0 0.0 0.00 0.00 0.00 95
20260502105947 11 261 0.0 0.0 0.00 0.00 0.00 95
20260502105746 11 261 0.0 0.0 0.00 0.00 0.00 95
20260502105544 11 261 0.0 0.0 0.00 0.00 0.00 95
20260502105341 11 261 0.0 0.0 0.00 0.00 0.00 95
20260502105140 11 261 0.0 0.0 0.00 0.00 0.00 95
20260502104936 11 261 0.0 0.0 0.00 0.00 0.00 95
20260502104534 11 261 0.0 0.0 0.00 0.00 0.00 95
20260502104335 11 261 0.0 0.0 0.00 0.00 0.00 95
20260502104130 11 261 0.0 0.0 0.00 0.00 0.00 95
20260502103726 11 261 0.0 0.0 0.00 0.00 0.00 95
20260502103525 11 261 0.0 0.0 0.00 0.00 0.00 95
20260502103323 11 261 0.0 0.0 0.00 0.00 0.00 95
20260502103121 11 261 0.0 0.0 0.00 0.00 0.00 95
20260502102919 11 261 0.0 0.0 0.00 0.00 0.00 95
20260502102718 11 261 0.0 0.0 0.00 0.00 0.00 95
20260502102515 11 261 0.0 0.0 0.00 0.00 0.00 95
20260502102312 11 261 0.0 0.0 0.00 0.00 0.00 95
20260502102111 11 261 0.0 0.0 0.00 0.00 0.00 95
20260502101909 11 261 0.0 0.0 0.00 0.00 0.00 95
20260502101708 11 261 0.0 0.0 0.00 0.00 0.00 95
20260502101505 11 261 0.0 0.0 0.00 0.00 0.00 95
20260502101304 11 261 0.0 0.0 0.00 0.00 0.00 95
20260502101101 11 261 0.0 0.0 0.00 0.00 0.00 95
20260502100858 11 261 0.0 0.0 0.00 0.00 0.00 95
20260502100658 11 261 0.0 0.0 0.00 0.00 0.00 95
20260502100456 11 261 0.0 0.0 0.00 0.00 0.00 95
20260502091408 12 261 0.0 0.0 0.00 0.00 0.00 95
20260502091206 12 261 0.0 0.0 0.00 0.00 0.00 95
20260502090803 12 261 0.0 0.0 0.00 0.00 0.00 95
20260502090601 12 261 0.0 0.0 0.00 0.00 0.00 95
20260502090359 12 261 0.0 0.0 0.00 0.00 0.00 95
20260502090157 12 261 0.0 0.0 0.00 0.00 0.00 95
20260502071416 12 261 0.0 0.0 0.00 0.00 0.00 93
20260502071214 12 261 0.0 0.0 0.00 0.00 0.00 93
20260502071012 12 261 0.0 0.0 0.00 0.00 0.00 93
20260502070810 12 261 0.0 0.0 0.00 0.00 0.00 93
20260502070608 12 261 0.0 0.0 0.00 0.00 0.00 93
20260502070406 12 261 0.0 0.0 0.00 0.00 0.00 93
20260502070204 12 261 0.0 0.0 0.00 0.00 0.00 93
20260502065800 12 261 0.0 0.0 0.00 0.00 0.00 93
20260502065357 12 261 0.0 0.0 0.00 0.00 0.00 93
20260502065155 12 261 0.0 0.0 0.00 0.00 0.00 93
20260502064953 12 261 0.0 0.0 0.00 0.00 0.00 93
20260502064751 12 261 0.0 0.0 0.00 0.00 0.00 93
20260502064345 12 261 0.0 0.0 0.00 0.00 0.00 93
20260502064145 12 261 0.0 0.0 0.00 0.00 0.00 93
20260502063741 12 261 0.0 0.0 0.00 0.00 0.00 93
20260502063539 12 261 0.0 0.0 0.00 0.00 0.00 93
20260502063338 12 261 0.0 0.0 0.00 0.00 0.00 93
20260502062933 12 261 0.0 0.0 0.00 0.00 0.00 92
20260502062732 12 261 0.0 0.0 0.00 0.00 0.00 93
20260502062530 12 261 0.0 0.0 0.00 0.00 0.00 92
20260502062126 12 261 0.0 0.0 0.00 0.00 0.00 92
20260502061924 12 261 0.0 0.0 0.00 0.00 0.00 91
20260502061520 12 261 0.0 0.0 0.00 0.00 0.00 91
20260502061318 12 261 0.0 0.0 0.00 0.00 0.00 91
20260502061117 12 261 0.0 0.0 0.00 0.00 0.00 91
20260502060713 13 261 0.0 0.0 0.00 0.00 0.00 92
20260502060511 13 261 0.0 0.0 0.00 0.00 0.00 92
20260502060309 13 261 0.0 0.0 0.00 0.00 0.00 92
20260502060107 13 261 0.0 0.0 0.00 0.00 0.00 92
20260502055703 13 261 0.0 0.0 0.00 0.00 0.00 91
20260502055501 13 261 0.0 0.0 0.00 0.00 0.00 91
20260502055300 13 261 0.0 0.0 0.00 0.00 0.00 91
20260502055058 13 261 0.0 0.0 0.00 0.00 0.00 91
20260502054654 13 261 0.0 0.0 0.00 0.00 0.00 91
20260502054452 13 261 0.0 0.0 0.00 0.00 0.00 91
20260502054250 13 261 0.0 0.0 0.00 0.00 0.00 91
20260502054048 13 261 0.0 0.0 0.00 0.00 0.00 91
20260502053846 13 261 0.0 0.0 0.00 0.00 0.00 91
20260502053645 13 261 0.0 0.0 0.00 0.00 0.00 91
20260502053442 13 261 0.0 0.0 0.00 0.00 0.00 91
20260502053241 13 261 0.0 0.0 0.00 0.00 0.00 91
20260502053038 13 261 0.0 0.0 0.00 0.00 0.00 90
20260502052837 13 261 0.0 0.0 0.00 0.00 0.00 90
20260502052635 13 261 0.0 0.0 0.00 0.00 0.00 90
20260502051825 13 261 0.0 0.0 0.00 0.00 0.00 90
20260502051625 13 261 0.0 0.0 0.00 0.00 0.00 90
20260502051424 13 261 0.0 0.0 0.00 0.00 0.00 90
20260502050818 13 261 0.0 0.0 0.00 0.00 0.00 90
20260502050414 13 261 0.0 0.0 0.00 0.00 0.00 89
20260502050010 13 261 0.0 0.0 0.00 0.00 0.00 90
20260502045606 13 261 0.0 0.0 0.00 0.00 0.00 89
20260502045404 13 261 0.0 0.0 0.00 0.00 0.00 89
20260502044759 13 261 0.0 0.0 0.00 0.00 0.00 89
20260502044557 13 261 0.0 0.0 0.00 0.00 0.00 89
20260502044355 13 261 0.0 0.0 0.00 0.00 0.00 89
20260502044153 13 261 0.0 0.0 0.00 0.00 0.00 89
20260502043951 13 261 0.0 0.0 0.00 0.00 0.00 89
20260502043749 14 261 0.0 0.0 0.00 0.00 0.00 89
20260502043547 14 261 0.0 0.0 0.00 0.00 0.00 89
20260502043345 14 261 0.0 0.0 0.00 0.00 0.00 89
20260502043143 14 261 0.0 0.0 0.00 0.00 0.00 89
20260502042941 14 261 0.0 0.0 0.00 0.00 0.00 88
20260502042739 14 261 0.0 0.0 0.00 0.00 0.00 88
20260502042336 14 261 0.0 0.0 0.00 0.00 0.00 88
20260502041932 14 261 0.0 0.0 0.00 0.00 0.00 88
20260502041528 14 261 0.0 0.0 0.00 0.00 0.00 88
20260502041326 14 261 0.0 0.0 0.00 0.00 0.00 88
20260502041123 14 261 0.0 0.0 0.00 0.00 0.00 88
20260502040922 14 261 0.0 0.0 0.00 0.00 0.00 88
20260502040720 14 261 0.0 1.6 0.00 0.00 0.00 88
20260502040519 14 261 0.0 1.6 0.00 0.00 0.00 88
20260502040317 14 261 0.0 3.2 0.00 0.00 0.00 88
20260502040115 14 261 0.0 3.2 0.00 0.00 0.00 88
20260502035911 14 286 0.0 3.2 0.00 0.00 0.00 88
20260502035711 14 281 0.0 3.2 0.00 0.00 0.00 88
20260502035307 14 270 0.0 6.4 0.00 0.00 0.00 87
20260502035105 15 270 0.0 6.4 0.00 0.00 0.00 87
20260502034903 15 270 0.0 6.4 0.00 0.00 0.00 87
20260502034701 15 274 1.6 8.0 0.00 0.00 0.00 87
20260502034459 15 292 3.2 8.0 0.00 0.00 0.00 87
20260502034055 15 284 3.2 8.0 0.00 0.00 0.00 87
20260502033852 15 288 3.2 8.0 0.00 0.00 0.00 87
20260502033450 15 286 3.2 8.0 0.00 0.00 0.00 86
20260502033248 15 292 4.8 4.8 0.00 0.00 0.00 86
20260502033046 15 285 4.8 4.8 0.00 0.00 0.00 86
20260502032843 15 292 6.4 4.8 0.00 0.00 0.00 86
20260502032643 15 279 3.2 9.7 0.00 0.00 0.00 85
20260502032440 15 284 1.6 9.7 0.00 0.00 0.00 85
20260502032238 15 277 1.6 11.3 0.00 0.00 0.00 85
20260502032036 15 277 6.4 11.3 0.00 0.00 0.00 85
20260502031835 15 279 8.0 11.3 0.00 0.00 0.00 85
20260502031633 15 274 6.4 11.3 0.00 0.00 0.00 85
20260502031431 15 282 8.0 11.3 0.00 0.00 0.00 84
20260502031229 15 261 9.7 4.8 0.00 0.00 0.00 83
20260502031027 16 289 3.2 4.8 0.00 0.00 0.00 83
20260502030825 16 291 4.8 4.8 0.00 0.00 0.00 82
20260502030623 16 271 0.0 3.2 0.00 0.00 0.00 82
20260502030421 16 271 0.0 3.2 0.00 0.00 0.00 81
20260502030219 16 271 0.0 6.4 0.00 0.00 0.00 81
20260502030018 16 278 1.6 6.4 0.00 0.00 0.00 81
20260502025816 16 279 3.2 9.7 0.00 0.00 0.00 81
20260502025615 16 250 1.6 9.7 0.00 0.00 0.00 80
20260502025412 16 289 1.6 9.7 0.00 0.00 0.00 80
20260502025210 16 289 4.8 8.0 0.00 0.00 0.00 80
20260502025008 16 260 9.7 8.0 0.00 0.00 0.00 79
20260502024604 16 264 3.2 6.4 0.00 0.00 0.00 78
20260502024402 17 281 3.2 6.4 0.00 0.00 0.00 78
20260502024200 17 291 0.0 8.0 0.00 0.00 0.00 78
20260502023959 17 274 3.2 8.0 0.00 0.00 0.00 78
20260502023757 17 281 1.6 12.9 0.00 0.00 0.00 77
20260502023555 17 288 4.8 12.9 0.00 0.00 0.00 77
20260502023353 17 293 4.8 12.9 0.00 0.00 0.00 77
20260502023151 17 258 6.4 8.0 0.00 0.00 0.00 76
20260502022949 17 278 4.8 8.0 0.00 0.00 0.00 76
20260502022747 17 292 6.4 9.7 0.00 0.00 0.00 76
20260502022544 17 288 3.2 9.7 0.00 0.00 0.00 75
20260502022344 17 282 1.6 9.7 0.00 0.00 0.00 75
20260502022141 17 291 4.8 12.9 0.00 0.00 0.00 75
20260502021939 17 271 8.0 12.9 0.00 0.00 0.00 75
20260502021738 18 299 4.8 9.7 0.00 0.00 0.00 74
20260502021536 17 279 4.8 9.7 0.00 0.00 0.00 74
20260502021132 18 260 6.4 12.9 0.00 0.00 0.00 73
20260502020930 18 282 3.2 12.9 0.00 0.00 0.00 74
20260502020728 18 281 8.0 11.3 0.00 0.00 0.00 73
20260502020526 18 272 9.7 11.3 0.00 0.00 0.00 73
20260502020325 18 270 9.7 11.3 0.00 0.00 0.00 72
20260502020122 18 278 9.7 11.3 0.00 0.00 0.00 71
20260502015921 18 260 8.0 11.3 0.00 0.00 0.00 71
20260502015113 18 286 8.0 12.9 0.00 0.00 0.00 70
20260502014909 19 253 6.4 12.9 0.00 0.00 0.00 69
20260502014304 19 272 6.4 12.9 0.00 0.00 0.00 69
20260502014105 19 268 8.0 12.9 0.00 0.00 0.00 68
20260502013902 20 274 9.7 12.9 0.00 0.00 0.00 68
20260502013458 20 293 8.0 8.0 0.00 0.00 0.00 68
20260502012851 20 209 0.0 12.9 0.00 0.00 0.00 69
20260502012650 20 227 0.0 14.5 0.00 0.00 0.00 68
20260502012447 20 284 4.8 14.5 0.00 0.00 0.00 68
20260502012045 20 270 12.9 14.5 0.00 0.00 0.00 67
20260502011843 20 260 0.0 14.5 0.00 0.00 0.00 68
20260502011641 20 291 8.0 14.5 0.00 0.00 0.00 67
20260502011439 20 270 11.3 14.5 0.00 0.00 0.00 67
20260502011035 20 267 0.0 14.5 0.00 0.00 0.00 67
20260502010836 20 272 6.4 14.5 0.00 0.00 0.00 67
20260502010631 20 270 3.2 17.7 0.00 0.00 0.00 68
20260502010429 20 284 8.0 17.7 0.00 0.00 0.00 68
20260502010226 20 267 3.2 17.7 0.00 0.00 0.00 68
20260502005824 20 284 12.9 17.7 0.00 0.00 0.00 67
20260502005621 20 264 14.5 17.7 0.00 0.00 0.00 66
20260502005420 20 243 11.3 17.7 0.00 0.00 0.00 66
20260502005016 20 274 9.7 19.3 0.00 0.00 0.00 66
20260502004814 20 274 14.5 17.7 0.00 0.00 0.00 65
20260502004613 20 279 11.3 17.7 0.00 0.00 0.00 65
20260502004410 20 264 11.3 17.7 0.00 0.00 0.00 64
20260502004208 20 284 4.8 19.3 0.00 0.00 0.00 64
20260502004007 20 289 4.8 19.3 0.00 0.00 0.00 65
20260502003804 20 187 1.6 16.1 0.00 0.00 0.00 65
20260502003603 20 257 8.0 16.1 0.00 0.00 0.00 65
20260502003159 20 261 11.3 19.3 0.00 0.00 0.00 64
20260502002957 20 255 11.3 19.3 0.00 0.00 0.00 64
20260502002753 20 254 11.3 16.1 0.00 0.00 0.00 64
20260502002552 20 265 11.3 16.1 0.00 0.00 0.00 64
20260502002349 20 248 16.1 16.1 0.00 0.00 0.00 64
20260502002147 20 264 9.7 17.7 0.00 0.00 0.00 64
20260502001947 20 232 9.7 17.7 0.00 0.00 0.00 64
20260502001745 20 293 4.8 19.3 0.00 0.00 0.00 64
20260502001341 20 289 3.2 19.3 0.00 0.00 0.00 64
20260502001139 20 267 17.7 17.7 0.00 0.00 0.00 62
20260502000937 21 262 14.5 17.7 0.00 0.00 0.00 62
20260502000733 21 264 8.0 25.7 0.00 0.00 0.00 63
20260502000533 21 261 12.9 25.7 0.00 0.00 0.00 62
20260502000332 21 230 4.8 25.7 0.00 0.00 0.00 63
20260502000129 21 261 24.1 17.7 0.00 0.00 0.00 62
20260501235927 21 248 11.3 17.7 0.00 0.00 0.00 61
20260501235524 21 222 6.4 20.9 0.00 0.00 0.00 62
20260501235321 21 254 12.9 22.5 0.00 0.00 0.00 61
20260501235120 21 255 11.3 22.5 0.00 0.00 0.00 62
20260501234714 21 262 9.7 20.9 0.00 0.00 0.00 61
20260501234514 21 270 17.7 20.9 0.00 0.00 0.00 61
20260501234312 21 264 3.2 22.5 0.00 0.00 0.00 62
20260501234108 21 244 9.7 22.5 0.00 0.00 0.00 63
20260501233908 20 264 14.5 22.5 0.00 0.00 0.00 62
20260501233706 21 260 16.1 25.7 0.00 0.00 0.00 61
20260501233504 21 222 8.0 25.7 0.00 0.00 0.00 61
20260501233303 21 258 11.3 24.1 0.00 0.00 0.00 62
20260501233100 21 282 9.7 24.1 0.00 0.00 0.00 61
20260501232656 21 254 14.5 16.1 0.00 0.00 0.00 61
20260501232456 22 271 17.7 16.1 0.00 0.00 0.00 60
20260501232252 22 278 6.4 19.3 0.00 0.00 0.00 59
20260501232050 22 275 8.0 19.3 0.00 0.00 0.00 59
20260501231848 22 250 9.7 19.3 0.00 0.00 0.00 59
20260501231646 22 320 3.2 24.1 0.00 0.00 0.00 58
20260501231444 22 267 16.1 24.1 0.00 0.00 0.00 58
20260501231242 22 285 1.6 22.5 0.00 0.00 0.00 59
20260501231040 22 234 3.2 22.5 0.00 0.00 0.00 59
20260501230838 22 244 8.0 22.5 0.00 0.00 0.00 59
20260501230636 22 274 9.7 22.5 0.00 0.00 0.00 58
20260501230434 22 270 12.9 22.5 0.00 0.00 0.00 58
20260501230233 22 264 11.3 24.1 0.00 0.00 0.00 59
20260501230028 22 317 8.0 24.1 0.00 0.00 0.00 59
20260501225626 22 246 9.7 24.1 0.00 0.00 0.00 59
20260501225425 22 272 14.5 24.1 0.00 0.00 0.00 59
20260501225221 22 286 12.9 24.1 0.00 0.00 0.00 59
20260501225021 21 268 14.5 24.1 0.00 0.00 0.00 59
20260501224616 22 247 14.5 20.9 0.00 0.00 0.00 57
20260501224415 22 275 8.0 20.9 0.00 0.00 0.00 58
20260501224213 22 279 9.7 20.9 0.00 0.00 0.00 58
20260501224011 22 261 12.9 20.9 0.00 0.00 0.00 56
20260501223809 22 257 12.9 19.3 0.00 0.00 0.00 56
20260501223607 22 241 17.7 19.3 0.00 0.00 0.00 56
20260501223203 22 286 8.0 24.1 0.00 0.00 0.00 57
20260501223000 22 281 4.8 24.1 0.00 0.00 0.00 57
20260501222356 23 262 17.7 20.9 0.00 0.00 0.00 56
20260501222153 23 225 9.7 24.1 0.00 0.00 0.00 56
20260501221959 22 251 12.9 24.1 0.00 0.00 0.00 54
20260501221749 23 267 11.3 20.9 0.00 0.00 0.00 55
20260501221547 23 247 9.7 20.9 0.00 0.00 0.00 55
20260501221345 23 248 16.1 20.9 0.00 0.00 0.00 55
20260501221144 23 243 14.5 25.7 0.00 0.00 0.00 55
20260501220940 23 255 14.5 25.7 0.00 0.00 0.00 56
20260501220740 23 250 11.3 27.4 0.00 0.00 0.00 55
20260501220538 22 282 14.5 27.4 0.00 0.00 0.00 54
20260501220336 23 265 16.1 27.4 0.00 0.00 0.00 54
20260501220134 23 270 12.9 24.1 0.00 0.00 0.00 55
20260501215730 23 278 11.3 24.1 0.00 0.00 0.00 53
20260501215528 23 262 14.5 24.1 0.00 0.00 0.00 52
20260501215326 23 246 14.5 24.1 0.00 0.00 0.00 53
20260501214922 23 229 8.0 22.5 0.00 0.00 0.00 53
20260501214720 23 239 14.5 20.9 0.00 0.00 0.00 53
20260501214517 23 248 12.9 20.9 0.00 0.00 0.00 55
20260501214316 23 271 16.1 25.7 0.00 0.00 0.00 55
20260501214114 23 253 17.7 25.7 0.00 0.00 0.00 54
20260501213912 23 268 12.9 25.7 0.00 0.00 0.00 55
20260501213711 23 250 20.9 24.1 0.00 0.00 0.00 54
20260501213508 23 286 17.7 24.1 0.00 0.00 0.00 54
20260501213308 23 272 20.9 22.5 0.00 0.00 0.00 54
20260501213104 23 267 19.3 22.5 0.00 0.00 0.00 53
20260501212902 23 210 1.6 22.5 0.00 0.00 0.00 54
20260501212659 23 237 6.4 22.5 0.00 0.00 0.00 54
20260501212458 23 278 12.9 22.5 0.00 0.00 0.00 54
20260501212255 23 277 20.9 22.5 0.00 0.00 0.00 54
20260501212054 23 275 17.7 22.5 0.00 0.00 0.00 53
20260501211851 23 268 9.7 22.5 0.00 0.00 0.00 54
20260501211449 23 279 14.5 20.9 0.00 0.00 0.00 52
20260501211246 23 241 1.6 19.3 0.00 0.00 0.00 53
20260501211045 23 285 14.5 19.3 0.00 0.00 0.00 53
20260501210841 23 233 12.9 19.3 0.00 0.00 0.00 53
20260501210640 23 262 9.7 17.7 0.00 0.00 0.00 53
20260501210439 23 267 17.7 17.7 0.00 0.00 0.00 53
20260501210236 23 227 9.7 22.5 0.00 0.00 0.00 53
20260501210033 23 213 0.0 22.5 0.00 0.00 0.00 54
20260501205833 23 257 11.3 22.5 0.00 0.00 0.00 54
20260501205633 22 271 9.7 24.1 0.00 0.00 0.00 55
20260501205429 23 250 4.8 24.1 0.00 0.00 0.00 55
20260501205227 22 264 12.9 17.7 0.00 0.00 0.00 55
20260501205025 22 272 6.4 17.7 0.00 0.00 0.00 56
20260501204823 22 275 16.1 19.3 0.00 0.00 0.00 56
20260501204619 22 282 12.9 19.3 0.00 0.00 0.00 57
20260501204217 22 262 11.3 20.9 0.00 0.00 0.00 56
20260501204015 22 254 14.5 20.9 0.00 0.00 0.00 56
20260501203611 22 275 4.8 19.3 0.00 0.00 0.00 55
20260501203408 22 278 14.5 19.3 0.00 0.00 0.00 55
20260501203207 22 315 4.8 20.9 0.00 0.00 0.00 55
20260501203007 23 274 12.9 20.9 0.00 0.00 0.00 55
20260501202804 23 233 3.2 19.3 0.00 0.00 0.00 56
20260501202602 22 262 11.3 19.3 0.00 0.00 0.00 57
20260501202359 22 293 12.9 19.3 0.00 0.00 0.00 57
20260501202158 22 261 9.7 20.9 0.00 0.00 0.00 57
20260501201956 22 164 4.8 20.9 0.00 0.00 0.00 57
20260501201552 22 270 4.8 17.7 0.00 0.00 0.00 55
20260501201352 23 272 9.7 17.7 0.00 0.00 0.00 55
20260501201148 22 258 12.9 19.3 0.00 0.00 0.00 56
20260501200946 22 296 3.2 19.3 0.00 0.00 0.00 57
20260501200744 22 258 12.9 22.5 0.00 0.00 0.00 56
20260501200340 22 303 8.0 22.5 0.00 0.00 0.00 55
20260501195936 22 257 1.6 22.5 0.00 0.00 0.00 56
20260501195734 22 248 1.6 19.3 0.00 0.00 0.00 57
20260501195532 22 272 17.7 19.3 0.00 0.00 0.00 56
20260501194926 22 265 14.5 20.9 0.00 0.00 0.00 55
20260501194725 22 251 12.9 24.1 0.00 0.00 0.00 58
20260501194522 22 264 16.1 24.1 0.00 0.00 0.00 57
20260501194119 22 248 11.3 20.9 0.00 0.00 0.00 56
20260501193715 22 277 9.7 17.7 0.00 0.00 0.00 56
20260501193511 22 254 11.3 17.7 0.00 0.00 0.00 56
20260501193311 22 244 3.2 22.5 0.00 0.00 0.00 58
20260501193110 21 279 14.5 22.5 0.00 0.00 0.00 57
20260501192907 22 258 6.4 22.5 0.00 0.00 0.00 58
20260501192705 22 261 14.5 19.3 0.00 0.00 0.00 57
20260501192503 22 268 12.9 19.3 0.00 0.00 0.00 56
20260501192259 22 254 16.1 16.1 0.00 0.00 0.00 56
20260501192057 22 199 0.0 16.1 0.00 0.00 0.00 56
20260501191857 22 257 12.9 16.1 0.00 0.00 0.00 56
20260501191655 22 255 8.0 17.7 0.00 0.00 0.00 55
20260501191453 22 292 9.7 17.7 0.00 0.00 0.00 57
20260501190645 22 247 9.7 17.7 0.00 0.00 0.00 58
20260501190443 22 223 0.0 17.7 0.00 0.00 0.00 58
20260501190241 21 275 0.0 12.9 0.00 0.00 0.00 59
20260501190039 21 239 0.0 12.9 0.00 0.00 0.00 61
20260501185837 21 307 6.4 12.9 0.00 0.00 0.00 59
20260501185432 21 260 1.6 14.5 0.00 0.00 0.00 61
20260501185030 21 278 8.0 14.5 0.00 0.00 0.00 62
20260501184828 21 241 0.0 14.5 0.00 0.00 0.00 62
20260501184626 21 261 1.6 17.7 0.00 0.00 0.00 62
20260501184424 20 291 14.5 17.7 0.00 0.00 0.00 61
20260501184222 21 246 9.7 16.1 0.00 0.00 0.00 62
20260501184019 21 272 11.3 16.1 0.00 0.00 0.00 61
20260501183818 20 251 8.0 14.5 0.00 0.00 0.00 63
20260501183616 20 300 3.2 14.5 0.00 0.00 0.00 62
20260501183212 20 282 0.0 17.7 0.00 0.00 0.00 63
20260501183010 20 278 11.3 17.7 0.00 0.00 0.00 64
20260501182914 20 271 11.3 12.9 0.00 0.00 0.00 64
20260501182808 20 302 4.8 12.9 0.00 0.00 0.00 63